Regional Weather Roundup
Issued by NWS

Home | Current Version | Previous Version | Graphics & Text | Print | Product List | Glossary On
Versions: 1 2 3 4 5 6 7 8 9 10 11 12 13 14 15 16 17 18 19 20 21 22 23 24 25 26 27 28 29 30 31 32 33 34 35 36 37 38 39 40 41 42 43 44 45 46 47 48 49 50
000
ASUS43 KLOT 150703
RWRIL

ILLINOIS REGIONAL WEATHER ROUNDUP
NATIONAL WEATHER SERVICE CHICAGO/ROMEOVILLE IL
100 AM CST FRI DEC 15 2017

NOTE: "FAIR" INDICATES FEW OR NO CLOUDS BELOW 12,000 FEET WITH NO
SIGNIFICANT WEATHER AND/OR OBSTRUCTIONS TO VISIBILITY.

* THESE STATIONS ARE NOT UNDER NWS QUALITY CONTROL. THEY ALSO MAY NOT
  REPORT WEATHER SUCH AS PRECIPITATION OR FOG.

ILZ001-002-007-009-015-016-024-150800-
NORTHWEST ILLINOIS

CITY           SKY/WX    TMP DP  RH WIND       PRES   REMARKS
MOLINE         CLOUDY    27  18  69 W9        30.01F WCI  18
STERLING*        N/A     25  18  74 MISG        N/A
SAVANNA*       CLOUDY    26  18  72 SW10      30.00F WCI  16
$$

ILZ003-004-008-010-011-017-018-150800-
NORTH CENTRAL ILLINOIS

CITY           SKY/WX    TMP DP  RH WIND       PRES   REMARKS
ROCKFORD       CLOUDY    24  16  71 SW8       29.99F WCI  15
FREEPORT*      CLOUDY    23  17  78 SW10      29.98F WCI  12
ROCHELLE*      CLOUDY    24  18  77 SW9       29.99F WCI  14
DE KALB*       CLOUDY    23  17  77 SW7       29.98F WCI  15
PERU*          CLOUDY    23  17  77 SW6       30.02F WCI  15
$$

ILZ005-006-012>014-019>023-150800-
NORTHEAST ILLINOIS

CITY           SKY/WX    TMP DP  RH WIND       PRES   REMARKS
CHICAGO-OHARE  CLOUDY    22  12  65 SW6       29.99F WCI  14
CHICAGO-MIDWAY CLOUDY    22  13  68 SW6       30.00F WCI  14
AURORA         CLOUDY    21  14  74 SW6       30.00F WCI  13
LANSING*       CLOUDY    16  13  88 S3        30.01F
JOLIET*        CLOUDY    21  16  79 CALM      30.02F
WAUKEGAN       CLOUDY    22  13  68 SW8       29.96F WCI  12
DUPAGE AIRPORT CLOUDY    20  14  77 SW7       29.98F WCI  11
KANKAKEE*      CLOUDY    16  11  79 CALM      30.03F
WHEELING       CLOUDY    24  14  65 W6        30.00F WCI  17
MORRIS*        CLOUDY    20  14  76 SW5       30.01F WCI  14
ROMEOVILLE*    CLOUDY    20  14  78 SW5       30.01S WCI  14
NORTHERLY ISL    N/A     23  11  60 SW5         N/A  WCI  17
$$

LMZ740>746-150800-
SOUTHERN LAKE MICHIGAN

STATION/POSITION SKY/WX   TEMP    WIND        PRES    VSBY  WAVE
                          AIR SEA DIR/SP/G                  HT/PER
                          (F)     (DEG/KT/KT) (MB)    (MI)  (FT/S)
HARRISON CRIB              25     240/ 11/ 15   N/A
BURNHAM HARBOR             24     230/  4/  8   N/A
CALUMET HARBOR             22     210/  5/  6 1015.5F
BURNS HARBOR               22     210/  7/  8 1016.6F
MICHIGAN CITY              22     190/ 12/ 13   N/A
$$

ILZ025>027-034>036-040-047-049-050-058-095>099-150800-
WEST-CENTRAL ILLINOIS

CITY           SKY/WX    TMP DP  RH WIND       PRES   REMARKS
QUINCY         CLOUDY    27  20  75 SW5       30.07F WCI  22
GALESBURG*     CLOUDY    25  20  79 SW6       30.04F WCI  18
MACOMB*        CLOUDY    27  19  73 W6        30.08S WCI  20
JACKSONVILLE*  CLOUDY    27  18  70 SW6       30.07F WCI  20
PITTSFIELD*    CLOUDY    29  20  70 SW5       30.08F WCI  24
$$

ILZ028>032-037-038-041>044-048-051>054-059>061-150800-
CENTRAL ILLINOIS

CITY           SKY/WX    TMP DP  RH WIND       PRES   REMARKS
PONTIAC        CLOUDY    21  15  78 SW3       30.04F
DECATUR        PTCLDY    24  17  74 W6        30.06F WCI  17
PEORIA         CLOUDY    26  17  68 W6        30.05F WCI  19
LACON*         CLOUDY    25  18  75 SW5       30.03F WCI  19
LINCOLN*       CLOUDY    26  19  76 CALM      30.06F
SPRINGFIELD    CLOUDY    27  18  69 W9        30.07F WCI  18
TAYLORVILLE    CLOUDY    24  16  73 W5        30.07F WCI  18
$$

ILZ033-039-045-046-055>057-062-063-150800-
EAST-CENTRAL ILLINOIS

CITY           SKY/WX    TMP DP  RH WIND       PRES   REMARKS
CHAMPAIGN      PTCLDY    20  15  81 SW5       30.04F WCI  13
DANVILLE*      PTCLDY    20  15  82 CALM      30.02F
RANTOUL*       CLOUDY    20  16  83 CALM      30.04F
MATTOON        CLOUDY    25  18  74 SW3       30.05F
PARIS*         PTCLDY    24  18  79 W5        30.06F WCI  18
$$

ILZ079-100>102-150800-
SOUTHWEST ILLINOIS

CITY           SKY/WX    TMP DP  RH WIND       PRES   REMARKS
ALTON          CLOUDY    28  21  76 W5        30.10F WCI  23
BELLEVILLE     CLOUDY    29  19  64 W3        30.09F
CAHOKIA*       CLOUDY    29  18  63 CALM      30.11F
SPARTA*        CLOUDY    30  23  74 CALM      30.12S
$$

ILZ064>066-069>071-074>076-080>082-084>086-088>090-092>094-150800-
SOUTH-CENTRAL ILLINOIS

CITY           SKY/WX    TMP DP  RH WIND       PRES   REMARKS
CARBONDALE     CLOUDY    30  22  72 CALM      30.12S
CAIRO*         CLOUDY    32  24  74 CALM      30.13F
EFFINGHAM*     CLOUDY    28  22  76 W3        30.10F
MARION         CLOUDY    32  21  64 CALM      30.12S
MT. VERNON     CLOUDY    30  21  69 CALM      30.10F
CENTRALIA*     CLOUDY    31  21  67 NW6       30.08F WCI  25
SALEM*         CLOUDY    31  20  65 W3        30.08F
METROPOLIS*    CLOUDY    32  22  67 CALM      30.12F
$$

ILZ067-068-072-073-078-083-087-091-150800-
SOUTHEAST ILLINOIS

CITY           SKY/WX    TMP DP  RH WIND       PRES   REMARKS
LAWRENCEVILLE  CLOUDY    30  21  69 W5        30.08F WCI  25
FLORA*         CLOUDY    31  21  67 NW6       30.09F WCI  25
FAIRFIELD*     CLOUDY    30  21  68 CALM      30.09S
HARRISBURG*    CLOUDY    31  22  69 W5        30.11F WCI  26
ROBINSON*      CLOUDY    29  22  76 NW6       30.09F WCI  23
CARMI*         CLOUDY    31  24  76 W5        30.09F WCI  26
$$

ABBREVIATIONS USED IN REMARKS
   TC - TEMPERATURE IN CELSIUS
  WCI - WIND CHILL INDEX
   HX - HEAT INDEX
  VSB - VISIBILITY
$$





USA.gov is the U.S. government's official web portal to all federal, state and local government web resources and services.